Total_Precipitation_Accumulation
0.00 0.00 0.00 0.01 0.06 0.18 0.38 0.91 0.94 0.66 0.35 0.29 0.30 0.32 0.36 0.45 0.40 0.32 0.31 0.34 0.24 0.20
0.00 0.00 0.00 0.00 0.02 0.18 0.27 0.52 0.76 0.89 0.75 0.53 0.41 0.41 0.46 0.47 0.50 0.47 0.46 0.46 0.47 0.35
0.00 0.00 0.00 0.00 0.00 0.05 0.14 0.34 0.52 0.75 0.91 0.80 0.58 0.53 0.58 0.58 0.53 0.60 0.60 0.55 0.50 0.43
0.00 0.00 0.00 0.00 0.00 0.01 0.03 0.14 0.36 0.59 0.81 0.85 0.62 0.56 0.68 0.62 0.51 0.50 0.62 0.64 0.53 0.42
0.00 0.01 0.00 0.00 0.00 0.00 0.01 0.03 0.14 0.38 0.69 0.75 0.74 0.67 0.75 0.77 0.76 0.83 0.77 0.67 0.73 0.67
0.00 0.01 0.01 0.00 0.00 0.00 0.00 0.00 0.03 0.08 0.27 0.51 0.58 0.74 0.68 0.61 0.53 0.49 0.41 0.40 0.38 0.34
0.01 0.01 0.01 0.01 0.00 0.00 0.00 0.01 0.01 0.02 0.07 0.17 0.22 0.30 0.44 0.30 0.25 0.22 0.19 0.21 0.23 0.21
0.01 0.01 0.01 0.00 0.01 0.02 0.02 0.03 0.04 0.05 0.07 0.11 0.11 0.20 0.21 0.17 0.13 0.15 0.14 0.17 0.26 0.30
0.01 0.01 0.01 0.01 0.01 0.02 0.02 0.03 0.03 0.04 0.05 0.07 0.07 0.15 0.15 0.14 0.09 0.13 0.16 0.21 0.23 0.27
0.00 0.00 0.01 0.01 0.02 0.02 0.02 0.03 0.03 0.03 0.03 0.06 0.10 0.28 0.15 0.21 0.11 0.16 0.27 0.37 0.46 0.56
0.00 0.00 0.01 0.02 0.03 0.03 0.06 0.06 0.07 0.10 0.15 0.15 0.22 0.29 0.16 0.19 0.09 0.17 0.32 0.38 0.39 0.44
0.01 0.01 0.04 0.06 0.08 0.08 0.11 0.14 0.14 0.16 0.16 0.15 0.17 0.33 0.19 0.14 0.04 0.12 0.23 0.29 0.39 0.46
0.08 0.03 0.03 0.04 0.07 0.09 0.11 0.13 0.15 0.20 0.19 0.24 0.13 0.31 0.21 0.17 0.04 0.16 0.28 0.37 0.52 0.62
0.14 0.09 0.05 0.06 0.09 0.12 0.16 0.15 0.16 0.16 0.12 0.11 0.16 0.28 0.27 0.21 0.08 0.12 0.19 0.27 0.31 0.35